Location: Mount Cross
(36.6390°N, 79.4878°W)
Time: 18:39:24
(UTC+00:00)

Courier 1B Rocket - Pass Details

Date: 28 March 2023
Orbit: 920 x 1202 km, 28.2° (Epoch: 08 June)

Event Time Altitude Azimuth Distance (km) Brightness Sun altitude
Rises 02:45:45 0° 259° (W) 3,818 8.6 -36.1°
Reaches altitude 10° 02:48:42 10° 252° (WSW) 2,818 7.7 -36.6°
Enters shadow 02:51:03 21° 241° (WSW) 2,094 6.8 -37.0°
Maximum altitude 02:54:58 40° 185° (S) 1,412 - -37.6°
Drops below altitude 10° 03:00:52 10° 118° (ESE) 2,656 - -38.5°
Sets 03:03:35 0° 111° (ESE) 3,576 - -38.9°
